Location: Hiram
(41.3130°N, 81.1440°W)
Time: 09:31:52
(UTC-04:00)

Amateur Radio Satellites - All Passes

Search period start: 31 October 2014 09:01
Search period end: 01 November 2014 09:01
Location: Hiram, 41.3130°N, 81.1440°W

Satellite Date Start Highest point End Downlink Frequencies (MHz)
Time Altitude Azimuth
HO-68 31 Oct 09:36:02 09:42:18 32° 96° (E) 09:48:31 435.675 MHz FM
RS-15 31 Oct 09:42:07 09:48:13 16° 262° (W) 09:54:28 29.354 - 29.394 USB, Beacon 29.352 USB
UKube-1 31 Oct 09:55:35 09:56:45 11° 90° (E) 09:57:55 145.840 MHz, 145.915 MHz
Oscar 11 31 Oct 10:28:37 10:32:14 26° 95° (E) 10:35:51 145.825 FM, Beacon 2401.500 USB
SO-50 31 Oct 10:35:33 10:37:06 12° 107° (ESE) 10:38:40 436.795 FM
ISS 31 Oct 10:39:45 10:42:55 45° 139° (SE) 10:46:07 145.800 FM
KITSAT 1 31 Oct 10:42:54 10:49:59 35° 108° (ESE) 10:57:04 435.175 FM
FUNcube-1 31 Oct 10:45:36 10:48:12 16° 92° (E) 10:50:46 145.950 - 145.970 MHz USB
Sapphire 31 Oct 11:11:02 11:15:35 26° 48° (NE) 11:20:06 437.095 MHz 1200 baud AX-25 AFSK
HO-68 31 Oct 11:23:19 11:30:12 51° 293° (WNW) 11:37:03 435.675 MHz FM
UKube-1 31 Oct 11:29:01 11:33:22 66° 286° (WNW) 11:37:40 145.840 MHz, 145.915 MHz
PCSat 31 Oct 11:32:27 11:37:33 40° 53° (NE) 11:42:37 145.825 MHz
ZACube-1 31 Oct 11:37:43 11:41:53 64° 101° (E) 11:46:00 437.345 MHz
Oscar 11 31 Oct 12:04:43 12:08:21 27° 291° (WNW) 12:12:00 145.825 FM, Beacon 2401.500 USB
SO-50 31 Oct 12:12:28 12:16:57 75° 304° (NW) 12:21:36 436.795 FM
ISS 31 Oct 12:16:48 12:19:43 28° 336° (NNW) 12:22:39 145.800 FM
FUNcube-1 31 Oct 12:20:51 12:24:47 40° 288° (WNW) 12:28:40 145.950 - 145.970 MHz USB
KITSAT 1 31 Oct 12:37:09 12:45:02 55° 307° (NW) 12:52:58 435.175 FM
Oscar 19 31 Oct 12:44:32 12:47:27 16° 61° (ENE) 12:50:23 437.125 CW, 437.150 USB
JAS-1B 31 Oct 12:45:30 12:48:58 17° 58° (ENE) 12:52:28 435.800 - 435.900 CW/SSB
Sapphire 31 Oct 12:54:01 12:59:16 50° 247° (WSW) 13:04:28 437.095 MHz 1200 baud AX-25 AFSK
UOSAT-12 31 Oct 12:57:21 13:01:24 31° 114° (ESE) 13:05:32 437.025 FM, 437.400 FM
PCSat 31 Oct 13:16:08 13:20:48 30° 251° (WSW) 13:25:27 145.825 MHz
ZACube-1 31 Oct 13:16:19 13:17:43 12° 298° (WNW) 13:19:07 437.345 MHz
AO-27 31 Oct 13:20:50 13:23:35 15° 60° (ENE) 13:26:21 436.795 MHz FM
Oscar 16 31 Oct 13:29:20 13:34:06 40° 69° (ENE) 13:38:52 437.025 USB, Beacon 2401.1428
Saudisat 1A 31 Oct 13:33:48 13:35:28 12° 36° (NE) 13:37:07 436.775 MHz
Gurwin Techsat 1B 31 Oct 13:37:40 13:38:49 11° 57° (ENE) 13:39:58 435.225 FM
ISS 31 Oct 13:55:22 13:57:15 14° 356° (N) 13:59:08 145.800 FM
SO-50 31 Oct 13:56:11 13:58:21 13° 324° (NW) 14:00:33 436.795 FM
Uribyol 2 31 Oct 14:02:15 14:06:57 35° 68° (ENE) 14:11:40 436.500 FM
AO-Echo 31 Oct 14:04:43 14:09:25 43° 70° (ENE) 14:14:17 ?
ITAMSAT 1 31 Oct 14:10:04 14:14:52 39° 69° (ENE) 14:19:42 435.822 SSB
AO-7 31 Oct 14:11:54 14:14:11 11° 42° (NE) 14:16:27 29.400 - 29.500 MHz
Oscar 19 31 Oct 14:21:05 14:26:12 70° 258° (WSW) 14:31:20 437.125 CW, 437.150 USB
JAS-1B 31 Oct 14:33:20 14:39:03 66° 258° (WSW) 14:44:46 435.800 - 435.900 CW/SSB
UOSAT-12 31 Oct 14:37:16 14:41:29 33° 312° (NW) 14:45:47 437.025 FM, 437.400 FM
KITSAT 1 31 Oct 14:37:24 14:42:28 18° 332° (NNW) 14:47:34 435.175 FM
AO-27 31 Oct 14:57:13 15:02:25 78° 257° (WSW) 15:07:41 436.795 MHz FM
Oscar 16 31 Oct 15:09:23 15:13:33 25° 266° (W) 15:17:44 437.025 USB, Beacon 2401.1428
Saudisat 1A 31 Oct 15:11:24 15:15:50 71° 56° (NE) 15:20:14 436.775 MHz
Gurwin Techsat 1B 31 Oct 15:12:34 15:17:52 77° 74° (ENE) 15:23:12 435.225 FM
TMSAT-1 31 Oct 15:19:00 15:24:14 66° 73° (ENE) 15:29:30 436.925 FM
ISS 31 Oct 15:32:23 15:34:54 19° 17° (NNE) 15:37:25 145.800 FM
Uribyol 2 31 Oct 15:41:56 15:46:25 29° 264° (W) 15:50:57 436.500 FM
AO-Echo 31 Oct 15:44:31 15:48:22 22° 267° (W) 15:52:21 ?
ITAMSAT 1 31 Oct 15:50:07 15:54:26 26° 265° (W) 15:58:48 435.822 SSB
AO-7 31 Oct 15:57:09 16:04:59 50° 63° (ENE) 16:12:51 29.400 - 29.500 MHz
Uosat F 31 Oct 15:57:14 16:01:05 23° 64° (ENE) 16:04:58 435.120 FM
KITSAT 1 31 Oct 16:40:17 16:42:04 11° 4° (N) 16:43:52 435.175 FM
Saudisat 1A 31 Oct 16:53:07 16:54:48 12° 252° (WSW) 16:56:28 436.775 MHz
JAS-2 31 Oct 16:53:32 16:58:50 28° 60° (ENE) 17:04:39 435.800 - 435.900 CW/SSB, 435.910 FM
Gurwin Techsat 1B 31 Oct 16:56:04 16:58:25 13° 271° (W) 17:00:46 435.225 FM
TMSAT-1 31 Oct 17:01:33 17:04:37 15° 270° (W) 17:07:41 436.925 FM
Hamsat 31 Oct 17:07:54 17:09:37 12° 63° (ENE) 17:11:19 145.90 MHz
ISS 31 Oct 17:08:40 17:12:00 81° 35° (NE) 17:15:21 145.800 FM
Uosat F 31 Oct 17:34:47 17:39:34 44° 261° (W) 17:44:24 435.120 FM
AO-7 31 Oct 17:50:24 17:57:54 38° 262° (W) 18:05:28 29.400 - 29.500 MHz
OPAL 31 Oct 18:04:25 18:08:32 26° 97° (E) 18:12:37 ?
KITSAT 1 31 Oct 18:35:19 18:41:19 22° 34° (NE) 18:47:17 435.175 FM
JAS-2 31 Oct 18:37:14 18:43:20 56° 261° (W) 18:50:19 435.800 - 435.900 CW/SSB, 435.910 FM
Hamsat 31 Oct 18:40:55 18:45:03 60° 260° (W) 18:49:11 145.90 MHz
ISS 31 Oct 18:47:03 18:48:15 12° 231° (SW) 18:49:26 145.800 FM
SO-50 31 Oct 19:04:30 19:07:36 17° 39° (NE) 19:10:44 436.795 FM
SO-67 31 Oct 19:24:15 19:27:33 47° 74° (ENE) 19:30:52 435.3500 MHz FM
OPAL 31 Oct 19:42:58 19:47:28 36° 294° (WNW) 19:51:58 ?
RS-15 31 Oct 19:44:17 19:50:00 16° 97° (E) 19:55:39 29.354 - 29.394 USB, Beacon 29.352 USB
STRAND 1 31 Oct 20:00:28 20:05:29 51° 100° (E) 20:10:27 ?
HO-68 31 Oct 20:05:30 20:11:05 25° 58° (ENE) 20:16:40 435.675 MHz FM
AO-40 31 Oct 20:29:27 22:20:38 17° 111° (ESE) 23:23:26 Beacon 2401.320
KITSAT 1 31 Oct 20:30:04 20:38:11 75° 57° (ENE) 20:46:14 435.175 FM
SO-50 31 Oct 20:43:55 20:48:47 85° 238° (WSW) 20:53:41 436.795 FM
UKube-1 31 Oct 20:51:47 20:52:56 11° 60° (ENE) 20:54:05 145.840 MHz, 145.915 MHz
Oscar 10/S400 31 Oct 20:55:02 21:31:07 52° 200° (SSW) 05:53:32 145.825 - 145.975 CW/USB, Beacon 145.810 USB
Oscar 11 31 Oct 21:24:05 21:27:22 22° 67° (ENE) 21:30:39 145.825 FM, Beacon 2401.500 USB
UOSAT-12 31 Oct 21:26:36 21:30:46 30° 47° (NE) 21:34:53 437.025 FM, 437.400 FM
STRAND 1 31 Oct 21:40:33 21:44:17 21° 297° (WNW) 21:48:01 ?
FUNcube-1 31 Oct 21:42:20 21:44:59 16° 64° (ENE) 21:47:36 145.950 - 145.970 MHz USB
RS-15 31 Oct 21:49:22 22:00:18 75° 118° (ESE) 22:11:11 29.354 - 29.394 USB, Beacon 29.352 USB
MaSat-1 31 Oct 21:49:34 21:52:09 17° 108° (ESE) 21:54:36 437.345 MHz
HO-68 31 Oct 21:51:04 21:58:11 67° 257° (WSW) 22:05:22 435.675 MHz FM
UKube-1 31 Oct 22:24:08 22:28:28 77° 257° (WSW) 22:32:52 145.840 MHz, 145.915 MHz
KITSAT 1 31 Oct 22:26:43 22:32:45 24° 256° (WSW) 22:38:48 435.175 FM
ZACube-1 31 Oct 22:33:44 22:38:08 53° 73° (ENE) 22:42:28 437.345 MHz
Oscar 11 31 Oct 22:59:25 23:03:20 34° 263° (W) 23:07:16 145.825 FM, Beacon 2401.500 USB
UOSAT-12 31 Oct 23:06:40 23:10:57 35° 245° (WSW) 23:15:09 437.025 FM, 437.400 FM
FUNcube-1 31 Oct 23:16:31 23:20:57 53° 260° (W) 23:25:18 145.950 - 145.970 MHz USB
MaSat-1 31 Oct 23:23:52 23:27:21 33° 300° (WNW) 23:30:33 437.345 MHz
RS-15 01 Nov 00:03:48 00:13:39 37° 323° (NW) 00:23:38 29.354 - 29.394 USB, Beacon 29.352 USB
ZACube-1 01 Nov 00:12:17 00:14:48 15° 269° (W) 00:17:18 437.345 MHz
Oscar 16 01 Nov 01:42:35 01:45:03 13° 90° (E) 01:47:31 437.025 USB, Beacon 2401.1428
Sapphire 01 Nov 01:53:58 01:57:54 21° 106° (ESE) 02:01:51 437.095 MHz 1200 baud AX-25 AFSK
AO-Echo 01 Nov 02:13:17 02:16:14 15° 90° (E) 02:19:08 ?
PCSat 01 Nov 02:14:28 02:19:18 35° 110° (ESE) 02:24:10 145.825 MHz
JAS-1B 01 Nov 02:14:59 02:21:40 37° 98° (E) 02:29:25 435.800 - 435.900 CW/SSB
Uribyol 2 01 Nov 02:17:08 02:18:52 12° 89° (E) 02:20:36 436.500 FM
RS-15 01 Nov 02:22:54 02:30:31 20° 357° (N) 02:38:15 29.354 - 29.394 USB, Beacon 29.352 USB
ITAMSAT 1 01 Nov 02:24:37 02:27:03 13° 90° (E) 02:29:29 435.822 SSB
Oscar 19 01 Nov 02:32:47 02:37:37 41° 98° (E) 02:42:25 437.125 CW, 437.150 USB
AO-27 01 Nov 03:10:30 03:15:21 38° 98° (E) 03:20:10 436.795 MHz FM
Oscar 16 01 Nov 03:19:48 03:24:54 71° 286° (WNW) 03:30:00 437.025 USB, Beacon 2401.1428
Gurwin Techsat 1B 01 Nov 03:29:12 03:33:53 31° 96° (E) 03:38:31 435.225 FM
TMSAT-1 01 Nov 03:35:23 03:39:47 26° 94° (E) 03:44:09 436.925 FM
Sapphire 01 Nov 03:35:35 03:40:52 55° 303° (WNW) 03:46:13 437.095 MHz 1200 baud AX-25 AFSK
AO-Echo 01 Nov 03:50:10 03:55:29 69° 286° (WNW) 04:00:42 ?
Uribyol 2 01 Nov 03:53:44 03:58:58 82° 285° (WNW) 04:04:08 436.500 FM
PCSat 01 Nov 03:57:44 04:02:40 35° 308° (NW) 04:07:38 145.825 MHz
AO-7 01 Nov 04:01:12 04:04:59 14° 88° (E) 04:08:44 29.400 - 29.500 MHz
ITAMSAT 1 01 Nov 04:01:52 04:07:05 74° 286° (WNW) 04:12:15 435.822 SSB
JAS-1B 01 Nov 04:05:31 04:12:16 48° 291° (WNW) 04:20:15 435.800 - 435.900 CW/SSB
Oscar 19 01 Nov 04:12:38 04:16:43 25° 295° (WNW) 04:20:47 437.125 CW, 437.150 USB
RS-15 01 Nov 04:38:10 04:47:48 32° 32° (NNE) 04:57:41 29.354 - 29.394 USB, Beacon 29.352 USB
AO-27 01 Nov 04:50:20 04:54:41 27° 294° (WNW) 04:59:01 436.795 MHz FM
Gurwin Techsat 1B 01 Nov 05:09:04 05:13:49 34° 292° (WNW) 05:18:33 435.225 FM
TMSAT-1 01 Nov 05:14:53 05:19:48 40° 291° (WNW) 05:24:41 436.925 FM
OPAL 01 Nov 05:19:03 05:23:56 49° 69° (ENE) 05:28:47 ?
Saudisat 1A 01 Nov 05:19:08 05:22:04 18° 111° (ESE) 05:25:02 436.775 MHz
Sapphire 01 Nov 05:23:56 05:25:33 11° 325° (NW) 05:27:11 437.095 MHz 1200 baud AX-25 AFSK
Uribyol 2 01 Nov 05:36:10 05:37:34 11° 303° (WNW) 05:38:57 436.500 FM
Uosat F 01 Nov 05:42:11 05:47:09 56° 101° (E) 05:52:05 435.120 FM
JAS-2 01 Nov 05:46:43 05:53:13 28° 91° (E) 05:59:29 435.800 - 435.900 CW/SSB, 435.910 FM
AO-7 01 Nov 05:50:40 05:59:02 75° 106° (ESE) 06:07:22 29.400 - 29.500 MHz
Hamsat 01 Nov 06:26:53 06:30:16 23° 94° (E) 06:33:38 145.90 MHz
PANSAT 01 Nov 06:27:14 06:28:42 12° 183° (S) 06:30:10 not established
RS-15 01 Nov 06:50:34 07:01:49 89° 59° (ENE) 07:13:33 29.354 - 29.394 USB, Beacon 29.352 USB
Saudisat 1A 01 Nov 06:57:01 07:01:15 48° 307° (NW) 07:05:33 436.775 MHz
OPAL 01 Nov 06:59:20 07:03:02 20° 264° (W) 07:06:44 ?
STRAND 1 01 Nov 07:16:18 07:21:25 74° 74° (ENE) 07:26:35 ?
Uosat F 01 Nov 07:22:05 07:25:29 18° 298° (WNW) 07:28:52 435.120 FM
JAS-2 01 Nov 07:30:53 07:38:39 64° 289° (WNW) 07:46:08 435.800 - 435.900 CW/SSB, 435.910 FM
MaSat-1 01 Nov 07:33:03 07:34:57 19° 57° (ENE) 07:36:47 437.345 MHz
AO-7 01 Nov 07:44:31 07:51:03 27° 305° (NW) 07:57:36 29.400 - 29.500 MHz
Hamsat 01 Nov 08:02:31 08:06:12 30° 290° (WNW) 08:09:53 145.90 MHz
SO-67 01 Nov 08:20:01 08:23:25 56° 100° (E) 08:26:48 435.3500 MHz FM
